STARLINK-11556, 62838

Orbit data source: Space-Track

STARLINK-11556, 62838 is a payload satellite owned by SpaceX/Seattle (US) in LEO that was launched on Mon, 27 Jan 2025 UTC via an FALCON 9 launch vehicle from the Air Force Eastern Test Range (AFETR). Payload-class satellites include a variety of spacecraft equipped with specific instruments for various scientific and technological missions. These include communications satellites like Starlink; space stations such as the ISS; scientific satellites like the Hubble; Earth observation satellites from companies like Planet Labs, Umbra, and HawkEye 360; GPS; miniature CubeSats for education and research; and military/defense satellites.

Loading next visibility...
Identifier
62838, 2025-019K
Orbit
LEO
Country
Flag of USUS
Related business
Manufacturer
SpaceX/Seattle
Mission
Operational Commercial Communications
Bus & Motor
STARLINK V2MD, Unknown motor
Mass
960 kg wet, ~910 kg dry
Launch date (UTC)
2025-01-27 (9 months ago)
Launch vehicle
FALCON 9
Launch site
Air Force Eastern Test Range (AFETR)
Object type
Payload
Rocket body
Debris
Shape & HBR
Box + 2 Pan, 18.1 m
Radar Cross Section
36.964 m², Large (>1 m²)

Expand to show TLE details & history
Last TLE update: 1 day ago

TLE from 1 day ago
0 STARLINK-11556
1 62838U 25019K   25310.66668981 -.00104920  00000-0 -82435-3 0  9998
2 62838  42.9999 327.3232 0001675 263.1765 133.5717 15.70843620  6001
Epoch: 2025-11-06T16:00Z
TLE epoch observation values (Epoch: 2025-11-06T16:00:01.999Z)
Latitude
24.1761°
Longitude
69.79381°
Altitude
357.008 km
Speed
7.699 km/s
True Right ascension
23h 43m 41s
True Declination
24° 02' 25"
Sunlit
Object was in full shadow at epoch
Visualization orbit readout
Latitude
Unknown
Longitude
Unknown
Altitude
Unknown
Speed
Unknown
Apparent Right ascension
Unknown
Apparent Declination
Unknown
Sunlit
N/A
Visualization observer readout
Local Sidereal Time
13:29:04
Azimuth
Unknown
Elevation
Unknown
Doppler factor
Unknown
Orbital elements
Apogee altitude
359.595 km
Perigee altitude
357.338 km
Semi-major axis
6,736.603 km
Eccentricity
0.00017
Inclination
42.9999°
RAAN
327.3232°
Arg. of periapsis
263.1765°
True anomaly
133.5856°
Mean anomaly
133.5717°
Eccentric anomaly
133.57865°
Mean motion
3.92538 °/min
Orbital period
91.71 mins
BSTAR
-0.00082435
Loading maneuver chart data...
Computing Atmospheric mass density...
Loading historical data...
Loading historical data...
Loading historical data...
Loading historical data...
Loading historical data...
Loading historical data...
Loading historical data...

Documentation

Showing up to 5 results
|